Location: Ebendorf
(52.1827°N, 11.5706°E)
Time: 09:35:10
(UTC+00:00)

GP-B - Pass Details

Date: 15 May 2021
Orbit: 631 x 635 km, 89.8° (Epoch: 20 June)

Event Time Altitude Azimuth Distance (km) Brightness Sun altitude
Rises 02:11:25 0° 356° (N) 2,945 7.2 -8.7°
Reaches altitude 10° 02:13:43 10° 350° (N) 2,031 6.3 -8.5°
Maximum altitude 02:17:57 44° 279° (W) 878 3.6 -8.1°
Drops below altitude 10° 02:22:10 10° 207° (SSW) 2,013 5.1 -7.6°
Enters shadow 02:22:35 - 206° (SSW) 2,177 5.3 -7.6°
